Location: *
(51.1248°S, 108.4023°W)
Time: 03:36:43
(UTC+00:00)

H-2A R/B - Pass Details

Date: 15 June 2021
Orbit: 577 x 654 km, 98.5° (Epoch: 31 July)

Event Time Altitude Azimuth Distance (km) Brightness Sun altitude
Rises 13:24:22 0° 163° (SSE) 3,003 5.6 -16.4°
Reaches altitude 10° 13:26:37 10° 160° (SSE) 2,093 4.8 -16.1°
Maximum altitude 13:31:11 65° 77° (ENE) 735 2.7 -15.4°
Drops below altitude 10° 13:35:42 10° 355° (N) 2,080 4.9 -14.7°
Sets 13:37:56 0° 351° (N) 2,983 5.7 -14.4°
